Regional Weather Roundup
Issued by NWS

Home | Current Version | Previous Version | Graphics & Text | Print | Product List | Glossary On
Versions: 1 2 3 4 5 6 7 8 9 10 11 12 13 14 15 16 17 18 19 20 21 22 23 24 25 26 27 28 29 30 31 32 33 34 35 36 37 38 39 40 41 42 43 44 45 46 47 48 49
855
ASUS45 KBOU 300907
RWRCO

WEATHER ROUNDUP FOR COLORADO
NATIONAL WEATHER SERVICE DENVER/BOULDER CO
300 AM MDT SAT APR 30 2016

NOTE: "FAIR" INDICATES FEW OR NO CLOUDS BELOW 12000 FEET WITH NO
SIGNIFICANT WEATHER AND/OR OBSTRUCTIONS TO VISIBILITY.

COZ001>005-013-030-031-301000-
...NORTHWEST COLORADO...

CITY           SKY/WX    TMP DP  RH WIND       PRES   REMARKS
CRAIG          CLOUDY    35  29  78 W10       29.86F WCI  27
HAYDEN         CLOUDY    34  27  75 W9        29.84S WCI  26
MEEKER         CLOUDY    34  30  85 W5        29.87S WCI  30
MOUNT WERNER   NOT AVBL
STEAMBOAT SPGS CLOUDY    31  30  97 S7        29.84S WCI  24
WALDEN         CLOUDY    28  23  80 NW6       29.63R WCI  22
$$

COZ006>008-011-301000-
...WEST CENTRAL VALLEYS...

CITY           SKY/WX    TMP DP  RH WIND       PRES   REMARKS
GRAND JUNCTION CLOUDY    43  40  89 N8        29.83S
MONTROSE       CLOUDY    42  35  76 SE6       29.86S
EAGLE          CLOUDY    37  37 100 W3        29.85S
RIFLE          CLOUDY    43  35  73 W3        29.84S
DELTA          NOT AVBL
NUCLA          NOT AVBL
$$

COZ017>023-064>068-301000-
...SOUTHWEST COLORADO...

CITY           SKY/WX    TMP DP  RH WIND       PRES   REMARKS
DURANGO        FAIR      28  24  85 NE3       29.84F
CORTEZ         FAIR      32  30  92 CALM      29.86F
PAGOSA SPRINGS CLOUDY    32  32 100 CALM      29.87S
TELLURIDE      CLOUDY    30  30  99 CALM      29.89F
WOLF CREEK PAS CLOUDY    19  19 100 SW13      29.91F FOG     WCI   7
$$

COZ009-010-012-014-032>034-037-058>063-301000-
...CENTRAL COLORADO...

CITY           SKY/WX    TMP DP  RH WIND       PRES   REMARKS
ASPEN          CLOUDY    33  31  92 N6        29.82S WCI  28
BUENA VISTA    FAIR      21  20  94 W5        29.83F WCI  15
COPPER MTN     NOT AVBL
BERTHOUD PASS  LGT SNOW  14   5  67 N10       29.82F VSB 3/4 WCI   1
COTTONWOOD PAS FAIR      28  25  86 CALM      29.82F
GUNNISON       CLOUDY    36  30  80 SW5       29.84S
KREMMLING      CLOUDY    32  27  80 NW9       29.84S WCI  24
LEADVILLE      LGT SNOW  22  21  96 CALM      29.81F FOG
MONARCH PASS   CLOUDY    23  19  86 MISG      29.94F
SALIDA         CLOUDY    32  29  89 CALM      29.90F
SUNLIGHT       FOG      N/A N/A N/A W3        29.90F VSB 1/4
WILKERSON PASS CLOUDY   N/A N/A N/A CALM      29.85S HAZE
$$

COZ069>075-301000-
...SAN LUIS VALLEY/SANGRE DE CRISTO MOUNTAINS...

CITY           SKY/WX    TMP DP  RH WIND       PRES   REMARKS
ALAMOSA        CLOUDY    33  31  92 CALM      29.82F
LA VETA PASS   SNOW      27  27 100 MISG      29.81F VSB 1/2
SAGUACHE       CLOUDY    32  32 100 CALM      29.84F
$$

COZ035-036-038>040-301000-
...NORTHERN COLORADO FRONT RANGE...

CITY           SKY/WX    TMP DP  RH WIND       PRES   REMARKS
DENVER INTL AP LGT SNOW  32  29  88 NW8       29.87S VSB 1   WCI  25
DMNS CITY PARK   N/A     32  32  99 N3        29.87S
AURORA         LGT SNOW  32  32 100 NW8       29.87S FOG     WCI  25
FRONT RANGE AP NOT AVBL
ERIE MUNI ARPT LGT RAIN  33  33 100 CALM      29.88S
BOULDER MUN AP LGT SNOW  32  32 100 N3        29.87F
CENTENNIAL     LGT SNOW  31  30  96 N9        29.86F FOG     WCI  23
BROOMFIELD     LGT SNOW  32  32 100 N7        29.87F WCI  26
FORT COLLINS   FAIR      34  32  93 N9        29.89F WCI  26
LONGMONT       FLURRIES  36  34  94 N5        29.90F
$$

COZ041-046-047-076>085-087-088-301000-
...PIKES PEAK/PALMER DIVIDE AND SOUTHERN FOOTHILLS...

CITY           SKY/WX    TMP DP  RH WIND       PRES   REMARKS
COLO. SPRINGS  MOCLDY    32  25  75 N12       29.83F WCI  23
A. F. ACADEMY  FAIR      30  28  93 N13       29.82F WCI  20
SCHRIEVER AFB  NOT AVBL
ELLICOTT       NOT AVBL
FALCON         CLOUDY    29  27  90 NW8G17    29.82F WCI  21
FORT CARSON    NOT AVBL
LIMON          LGT SNOW  30  29  96 NW15      29.83S FOG     WCI  19
MONUMENT HILL  CLOUDY    27  27 100 NW13      29.84F FOG     WCI  16
TRINIDAD       CLOUDY    26  24  92 W6        29.83F FOG     WCI  19
$$

COZ042>045-048>051-090-091-301000-
...NORTHEAST COLORADO...

CITY           SKY/WX    TMP DP  RH WIND       PRES   REMARKS
GREELEY ARPT   CLOUDY    34  32  93 N8        29.89F WCI  27
AKRON          LGT SNOW  30  29  96 N15       29.83F FOG     WCI  19
BURLINGTON     CLOUDY    32  30  92 N16       29.80F FOG     WCI  21
WRAY           NOT AVBL
STERLING       FLURRIES  32  32 100 N7        29.85F WCI  26
HOLYOKE        NOT AVBL
FORT MORGAN    CLOUDY    32  32  99 N13       29.87F WCI  22
$$

COZ086-089-092>099-301000-
...SOUTHEAST COLORADO...

CITY           SKY/WX    TMP DP  RH WIND       PRES   REMARKS
PUEBLO         CLOUDY    36  33  89 SW6       29.85F
LA JUNTA       CLOUDY    37  34  89 W7        29.85F
LAMAR          FAIR      33  32  96 W6        29.82F WCI  28
SPRINGFIELD      N/A     35  32  88 NW22G29   29.79F WCI  23
$$




USA.gov is the U.S. government's official web portal to all federal, state and local government web resources and services.